STARLINK-35351, 65668

Orbit data source: Space-Track

STARLINK-35351, 65668 is a payload satellite owned by SpaceX/Seattle (US) in SSO that was launched on Fri, 19 Sep 2025 UTC via an FALCON 9 launch vehicle from the Air Force Western Test Range (AFWTR). Payload-class satellites include a variety of spacecraft equipped with specific instruments for various scientific and technological missions. These include communications satellites like Starlink; space stations such as the ISS; scientific satellites like the Hubble; Earth observation satellites from companies like Planet Labs, Umbra, and HawkEye 360; GPS; miniature CubeSats for education and research; and military/defense satellites.

Loading next visibility...
Identifier
65668, 2025-211S
Orbit
SSO
Country
Flag of USUS
Related business
Manufacturer
SpaceX/Seattle
Mission
Operational Commercial Communications
Bus & Motor
STARLINK V2MO, Unknown motor
Mass
575 kg wet, ~530 kg dry
Launch date (UTC)
2025-09-19 (9 months ago)
Launch vehicle
FALCON 9
Launch site
Air Force Western Test Range (AFWTR)
Object type
Payload
Rocket body
Debris
Shape & HBR
Box + 2 Pan, 17.7 m
Radar Cross Section
36.964 m², Large (>1 m²)

Expand to show TLE details & history
Last TLE update: 1 day ago

TLE from 1 day ago
0 STARLINK-35351
1 65668U 25211S   26170.69429778  .00002889  00000-0  20403-3 0  9999
2 65668  97.3366 213.5928 0001753  97.0340 263.1087 15.05660441 42393
Epoch: 2026-06-19T16:39Z
TLE epoch observation values (Epoch: 2026-06-19T16:39:47.328Z)
Latitude
Longitude
55.726°
Altitude
552.698 km
Speed
7.585 km/s
True Right ascension
14h 14m 22s
True Declination
0° 00' 00"
Sunlit
Object was in full shadow at epoch
Visualization orbit readout
Latitude
Unknown
Longitude
Unknown
Altitude
Unknown
Speed
Unknown
Apparent Right ascension
Unknown
Apparent Declination
Unknown
Sunlit
N/A
Visualization observer readout
Local Sidereal Time
07:13:49
Azimuth
Unknown
Elevation
Unknown
Doppler factor
Unknown
Orbital elements
Apogee altitude
547.675 km
Perigee altitude
545.247 km
Semi-major axis
6,924.598 km
Eccentricity
0.00018
Inclination
97.3366°
RAAN
213.5928°
Arg. of periapsis
97.034°
True anomaly
263.08876°
Mean anomaly
263.1087°
Eccentric anomaly
263.09873°
Mean motion
3.76662 °/min
Orbital period
95.58 mins
BSTAR
0.00020403
Loading maneuver chart data...
Computing Atmospheric mass density...
Loading historical data...
Loading historical data...
Loading historical data...
Loading historical data...
Loading historical data...
Loading historical data...
Loading historical data...

Documentation

Showing up to 5 results
|